Regional Weather Roundup
Issued by NWS

Home | Current Version | Previous Version | Text Only | Print | Product List | Glossary Off
Versions: 1 2 3 4 5 6 7 8 9 10 11 12 13 14 15 16 17 18 19 20 21 22 23 24 25 26 27 28 29 30 31 32 33 34 35 36 37 38 39 40 41 42 43 44 45 46 47 48 49 50

000
ASUS43 KMPX 130001
RWRMN
WEATHER ROUNDUP FOR MINNESOTA
NATIONAL WEATHER SERVICE TWIN CITIES/CHANHASSEN MN
600 PM CST TUE DEC 12 2017


NOTE: "FAIR" INDICATES FEW OR NO CLOUDS BELOW 12,000 FEET WITH NO
SIGNIFICANT WEATHER AND/OR OBSTRUCTIONS TO VISIBILITY. N/A MEANS
CURRENT SKY AND/OR WEATHER CONDITIONS ARE NOT AVAILABLE.

MNZ060>063-068>070-130100-
   Twin Cities Metro

CITY           SKY/WX    TMP DP  RH WIND       PRES   REMARKS
TWIN CITIES    MOCLDY    20  14  77 SE7       29.87F WCI  11
6HR MIN TEMP:  15; 6HR MAX TEMP:  21; 6HR PCP: TRACE;

ST PAUL        PTCLDY    19  13  77 SE9       29.89F WCI   8
CRYSTAL        PTCLDY    20  11  68 SE8       29.85F WCI  10
BLAINE         MOCLDY    19  16  86 SE7       29.86F WCI  10
LAKEVILLE      PTCLDY    21  18  86 SE3       29.88F
EDEN PRAIRIE   PTCLDY    21  15  78 SE7       29.85F WCI  12
6HR MIN TEMP:  18; 6HR MAX TEMP:  23; 6HR PCP: TRACE;

SOUTH ST PAUL  CLOUDY    20  14  76 SE6       29.88F WCI  13
LAKE ELMO      FAIR      19  12  73 SE5       29.88F WCI  13
$$
MNZ001>005-007-008-013>017-022>024-027-028-130100-
   Northwest Minnesota

CITY           SKY/WX    TMP DP  RH WIND       PRES   REMARKS
BEMIDJI        CLOUDY    17  14  89 SE9       29.71F WCI   6
HALLOCK        CLOUDY    27  25  93 S14       29.59F WCI  15
ROSEAU         CLOUDY    19  16  86 SE9       29.65F WCI   9
WARROAD        CLOUDY    16  12  86 SE9       29.66F WCI   4
CROOKSTON      CLOUDY    28  27  93 S12       29.66F WCI  18
FOSSTON        CLOUDY    27  25  93 S10       29.67F WCI  17
DETROIT LAKES  CLEAR     30  28  93 SE6       29.69F WCI  24
MOORHEAD       CLEAR     34  28  80 CALM      29.69F
PARK RAPIDS    CLOUDY    23  19  85 SE10      29.71F WCI  12
MAHNOMEN       CLOUDY    29  26  89 S8        29.68F WCI  21
$$
MNZ006-009>011-018-025>026-130100-
   North Central Minnesota

CITY           SKY/WX    TMP DP  RH WIND       PRES   REMARKS
BAUDETTE       CLOUDY    16  12  84 SE13      29.69F WCI   2
FLAG ISLAND    CLOUDY    14  10  85 SE9G16    29.67F WCI   2
INTL FALLS     LGT SNOW  11   7  84 SE10      29.75F VSB 1   WCI  -3
6HR MIN TEMP:   9; 6HR MAX TEMP:  12; 6HR PCP:  0.03;

WASKISH        CLOUDY    16  14  93 SE9       29.71F WCI   4
BIG FORK       CLOUDY    14  10  85 SE6       29.76  WCI   5
LONGVILLE      CLOUDY    16  12  86 SE6       29.76F WCI   7
GRAND RAPIDS   CLOUDY    13  10  88 SE7       29.79F WCI   3
CRANE LAKE     LGT SNOW   9   7  92 CALM      29.82F
ORR            FLURRIES  10   7  85 SE6       29.76F WCI   1
COOK           FLURRIES  10   7  85 SE6       29.80F WCI   1
WALKER         CLOUDY    17  13  85 SE3       29.73F
$$
MNZ012-019>021-037-130100-
   Northeast Minnesota

CITY           SKY/WX    TMP DP  RH WIND       PRES   REMARKS
DULUTH         LGT SNOW  11   8  88 S7        29.82F FOG     WCI   0
6HR MIN TEMP:   8; 6HR MAX TEMP:  11;

ELY            LGT SNOW   9   3  78 SE6       29.81F WCI  -1
HIBBING        LGT SNOW  11   8  88 SE6       29.80F FOG     WCI   1
EVELETH        FLURRIES  12   7  79 SE3       29.82F
DULUTH HARBOR  LGT SNOW  16  10  79 S6        29.91F WCI   7
TWO HARBORS    LGT SNOW  16   9  73 CALM      29.84F
SILVER BAY     FLURRIES  12   3  67 CALM      29.84F
GRAND MARAIS     N/A     13   1  59 N3        29.92F
G MARAIS ARPRT CLOUDY     5  -6  61 CALM      29.81F
$$
MNZ029>031-032-039>041-046>048-054>057-064-130100-
   West Central Minnesota

CITY           SKY/WX    TMP DP  RH WIND       PRES   REMARKS
FERGUS FALLS   CLEAR     30  27  86 S6        29.74F WCI  24
WHEATON        CLEAR     36  27  69 S9        29.74F
MORRIS         CLEAR     30  25  80 S8        29.74F WCI  23
ALEXANDRIA     MOCLDY    30  27  88 S7        29.74F WCI  23
ELBOW LAKE     FAIR      26  24  93 S8        29.72F WCI  17
WADENA         MOCLDY    27  23  86 SE7       29.72F WCI  19
GLENWOOD       CLEAR     30  28  93 S5        29.76F WCI  25
APPLETON       CLEAR     36  28  75 S7        29.77F
BENSON         CLEAR     36  28  75 SW8       29.78F
ORTONVILLE     CLEAR     36  27  69 SW5       29.75F
MADISON        CLEAR     36  30  80 SW8       29.77F
WILLMAR        CLOUDY    37  30  75 SW7       29.80F
$$
MNZ033>034-036-042>043-049>051-058-059-130100-
   Central Minnesota

CITY           SKY/WX    TMP DP  RH WIND       PRES   REMARKS
ST CLOUD       CLOUDY    19  15  84 SE5       29.83F WCI  12
6HR MIN TEMP:  16; 6HR MAX TEMP:  21; 6HR PCP:  0.01;

SAUK CENTRE    CLOUDY    29  26  88 SE6       29.77F WCI  23
PAYNESVILLE    CLOUDY    30  27  90 SE8       29.78F WCI  22
AITKIN         CLOUDY    12  10  92 S8        29.79F WCI   1
PINE RIVER     CLOUDY    18  12  79 SE8       29.80F WCI   7
BRAINERD       CLOUDY    18  13  80 S8        29.79F WCI   8
STAPLES        CLOUDY    23  19  86 SE5       29.75F WCI  17
LONG PRAIRIE   CLOUDY    27  23  86 E6        29.77F WCI  20
LITTLE FALLS   CLOUDY    21  12  68 SE8       29.80F WCI  12
LITCHFIELD     CLOUDY    28  27  93 SE6       29.81F WCI  22
BUFFALO        CLOUDY    20  15  81 SE3       29.85F
MAPLE LAKE     CLOUDY    22  19  86 SE6       29.84F WCI  15
HUTCHINSON     CLOUDY    29  26  89 SE5       29.83F WCI  24
$$
MNZ037-044-045-052-053-130100-
   East Central Minnesota

CITY           SKY/WX    TMP DP  RH WIND       PRES   REMARKS
PRINCETON      CLOUDY    19  14  79 SE7       29.84F WCI  10
MORA           CLOUDY    14  10  85 S5        29.87F WCI   6
CAMBRIDGE      CLOUDY    18  10  73 SE5       29.86F WCI  11
RUSH CITY      CLOUDY    15  10  80 SE7       29.87F WCI   6
MOOSE LAKE     CLOUDY    14  10  85 CALM      29.84F
HINCKLEY       CLOUDY    16  12  86 S7        29.86F WCI   6
CLOQUET        LGT SNOW  12   9  85 S5        29.83F WCI   4
MCGREGOR       CLOUDY    16  12  86 S9        29.82F WCI   4
$$
MNZ071>073-080-081-089-090-097-098-130100-
   Southwest Minnesota

CITY           SKY/WX    TMP DP  RH WIND       PRES   REMARKS
MONTEVIDEO     CLEAR     34  27  75 W7        29.79F WCI  28
GRANITE FALLS  PTCLDY    35  29  77 S9        29.82F WCI  28
CANBY          CLEAR     40  31  71 SW17G23   29.77F
MARSHALL       CLEAR     37  29  72 SW13      29.81F
REDWOOD FALLS  PTCLDY    34  27  75 SW10      29.82F WCI  26
OLIVIA         CLOUDY    36  30  80 SW14      29.80F
PIPESTONE      CLEAR     32  27  80 SW10      29.83F WCI  24
WINDOM         CLEAR     32  19  59 SW12      29.85F WCI  23
WORTHINGTON    CLEAR     33  27  78 SW15G21   29.85F WCI  23
JACKSON        CLEAR     32  27  80 MISG      29.86F
SLAYTON        CLEAR     32  28  85 SW9       29.85F WCI  25
$$
MNZ065>067-074>077-082>085-091>093-130100-
   South Central Minnesota

CITY           SKY/WX    TMP DP  RH WIND       PRES   REMARKS
MANKATO        CLOUDY    30  25  81 S8        29.86F WCI  22
NEW ULM        CLOUDY    34  27  75 SW8       29.84F WCI  27
ST JAMES       CLEAR     32  27  80 S8        29.86F WCI  25
FAIRMONT       CLEAR     33  26  75 SW13      29.88F WCI  24
GLENCOE        CLOUDY    26  22  85 SE5       29.83F WCI  20
FARIBAULT      CLOUDY    25  19  80 S7        29.87F WCI  17
OWATONNA       CLOUDY    25  21  86 S10       29.87F WCI  15
WASECA         CLOUDY    28  23  80 S9        29.89F WCI  20
$$
MNZ078>079-086>088-094>096-130100-
   Southeast Minnesota

CITY           SKY/WX    TMP DP  RH WIND       PRES   REMARKS
ROCHESTER      CLOUDY    22  18  85 S12       29.90F WCI  10
6HR MIN TEMP:  14; 6HR MAX TEMP:  22;

RED WING       CLOUDY    19  10  68 SE7       29.91F WCI  10
STANTON        CLOUDY    25  19  80 S8        29.87F WCI  16
DODGE CENTER   CLOUDY    23  18  80 S10       29.88F WCI  12
WINONA           N/A     21  12  68 SE5       29.97F WCI  15
AUSTIN         CLOUDY    25  18  74 S6        29.91F WCI  18
PRESTON        CLOUDY    22  15  74 S10       29.93F WCI  11
$$
ABBREVIATIONS USED IN REMARKS
   TC - TEMPERATURES IN CELSIUS
  WCI - WIND CHILL INDEX
   HX - HEAT INDEX
  VSB - VISIBILITY
$$




USA.gov is the U.S. government's official web portal to all federal, state and local government web resources and services.